Huntington, WV

2:46 AM EST on December 16, 2019 (GMT -0500)
Tri-State / Ferguson

Weather History for KHTS - October, 2019

Change the Weather History Date:

Saturday, October 12, 2019

  Actual Average Record
Temperature  
Mean Temperature 55 °F 58 °F  
Max Temperature 70 °F 69 °F 88 °F (1954)
Min Temperature 40 °F 46 °F 26 °F (1906)
Degree Days  
Heating Degree Days 10 8  
Month to date heating degree days 22 79  
Since 1 July heating degree days 22 137  
Cooling Degree Days 0 1  
Month to date cooling degree days 65 14  
Year to date cooling degree days 1510 1125  
Growing Degree Days 2 (Base 50)    
Moisture  
Dew Point 44 °F    
Average Humidity 68    
Maximum Humidity 92    
Minimum Humidity 43    
Precipitation  
Precipitation T in 0.08 in 1.64 in (1902)
Month to date precipitation 2.78 1.05  
Year to date precipitation 37.25 34.08  
Snow  
Snow 0.00 in 0.00 in 0.00 in (2016)
Month to date snowfall 0.0 0.0  
Since 1 September snowfall 0.0 0.0  
Snow Depth 0.00 in    
Sea Level Pressure  
Sea Level Pressure 30.09 in    
Wind  
Wind Speed 7 mph (West)    
Max Wind Speed 17 mph    
Max Gust Speed 24 mph    
Visibility 10 miles    
Events Rain    
T = Trace of Precipitation, MM = Missing Value Source: NWS Daily Summary

Daily Weather History Graph

Daily Weather History Graph

Search for Another Location

Airport or City:

Astronomy

Oct. 12, 2019 Rise Set
Actual Time 7:36 AM EDT 6:56 PM EDT
Civil Twilight 7:09 AM EDT 7:23 PM EDT
Nautical Twilight 6:38 AM EDT 7:54 PM EDT
Astronomical Twilight 6:08 AM EDT 8:24 PM EDT
Moon 6:50 PM EDT (10/12) 6:14 AM EDT (10/12)
Length of Visible Light 12h 13m
Length of Day
11h 20m
Waxing Gibbous, 99% of the Moon is Illuminated
Oct 12
Waxing Gibbous
Oct 13
Full
Oct 21
Last Quarter
Oct 27
New
Nov 4
First Quarter

Hourly Weather History & Observations

Time (EDT) Temp. Windchill Dew Point Humidity Pressure Visibility Wind Dir Wind Speed Gust Speed Precip Events Conditions
12:51 AM 70.0 °F - 57.9 °F 65% 29.92 in 10.0 mi South 5.8 mph - N/A   Overcast
1:51 AM 69.1 °F - 57.9 °F 68% 29.91 in 10.0 mi SSW 6.9 mph - N/A   Overcast
2:51 AM 70.0 °F - 57.9 °F 65% 29.92 in 10.0 mi WSW 9.2 mph - N/A   Overcast
3:16 AM 64.9 °F - 57.9 °F 78% 29.96 in 10.0 mi WNW 13.8 mph 23.0 mph N/A   Overcast
3:39 AM 60.1 °F - 53.1 °F 78% 29.98 in 10.0 mi NW 16.1 mph 23.0 mph N/A   Overcast
3:51 AM 57.9 °F - 52.0 °F 81% 29.97 in 10.0 mi NW 15.0 mph 24.2 mph N/A   Overcast
4:51 AM 53.1 °F - 48.0 °F 83% 30.01 in 10.0 mi WNW 11.5 mph - 0.00 in   Overcast
5:04 AM 52.0 °F - 48.0 °F 86% 30.03 in 10.0 mi NW 9.2 mph 20.7 mph N/A   Overcast
5:51 AM 50.0 °F - 46.9 °F 89% 30.04 in 10.0 mi West 5.8 mph - 0.00 in Rain Light Rain
6:16 AM 48.9 °F - 46.0 °F 90% 30.07 in 10.0 mi West 6.9 mph - 0.00 in   Overcast
6:47 AM 48.2 °F - 44.6 °F 87% 30.09 in 7.0 mi NW 12.7 mph 18.4 mph 0.00 in   Overcast
6:51 AM 46.9 °F - 44.1 °F 90% 30.09 in 7.0 mi WNW 12.7 mph 20.7 mph 0.00 in   Overcast
7:14 AM 46.9 °F - 43.0 °F 86% 30.11 in 10.0 mi WNW 6.9 mph 17.3 mph N/A   Overcast
7:51 AM 46.0 °F 41.9 °F 42.1 °F 86% 30.12 in 10.0 mi WNW 8.1 mph - N/A   Overcast
8:51 AM 45.0 °F 41.2 °F 42.1 °F 90% 30.15 in 10.0 mi NW 6.9 mph - 0.00 in   Overcast
8:58 AM 45.0 °F 40.6 °F 42.1 °F 90% 30.16 in 10.0 mi NW 8.1 mph - N/A   Mostly Cloudy
9:51 AM 45.0 °F 41.8 °F 42.1 °F 90% 30.17 in 10.0 mi WNW 5.8 mph - 0.00 in   Overcast
10:51 AM 44.1 °F 40.8 °F 39.0 °F 82% 30.18 in 10.0 mi WNW 5.8 mph - N/A   Overcast
11:51 AM 46.0 °F 42.5 °F 35.1 °F 66% 30.18 in 10.0 mi NW 6.9 mph - N/A   Overcast
11:58 AM 46.0 °F 42.5 °F 35.1 °F 66% 30.19 in 10.0 mi NNW 6.9 mph - N/A   Overcast
12:51 PM 48.0 °F - 37.0 °F 66% 30.18 in 10.0 mi SW 8.1 mph - N/A   Overcast
1:27 PM 51.1 °F - 37.9 °F 61% 30.17 in 10.0 mi Variable 6.9 mph - N/A   Scattered Clouds
1:51 PM 53.1 °F - 37.9 °F 57% 30.15 in 10.0 mi North - - N/A   Clear
2:51 PM 55.0 °F - 36.0 °F 49% 30.13 in 10.0 mi Calm Calm - N/A   Clear
4:51 PM 57.9 °F - 36.0 °F 44% 30.12 in 10.0 mi SSW 6.9 mph - N/A   Clear
5:51 PM 55.9 °F - 39.0 °F 53% 30.12 in 10.0 mi South 6.9 mph - N/A   Clear
6:51 PM 52.0 °F - 39.9 °F 63% 30.12 in 10.0 mi South 5.8 mph - N/A   Clear
7:51 PM 50.0 °F - 39.9 °F 68% 30.13 in 10.0 mi South 5.8 mph - N/A   Clear
8:51 PM 48.0 °F - 39.9 °F 74% 30.13 in 10.0 mi SE 3.5 mph - N/A   Clear
9:51 PM 45.0 °F 43.5 °F 39.9 °F 82% 30.13 in 10.0 mi ESE 3.5 mph - N/A   Clear
10:51 PM 44.1 °F 42.5 °F 39.9 °F 85% 30.13 in 10.0 mi ESE 3.5 mph - N/A   Clear
11:51 PM 43.0 °F 41.3 °F 39.9 °F 89% 30.12 in 10.0 mi ESE 3.5 mph - N/A   Clear